• In Deutschland
  • Länderverzeichnis
  • Für 7 Tage
  • Wassertemperatur
  • Satellitenkarten
  • Wetterkarte
  • Widgets
  • user-avatar
    Anmelden

    Stündliche Wetter Haan

    Heute, 23 Juni, Samstag

    Zeit Temperatur Niederschläge Wind Luftdruck Luftfeuchtigkeit
    00:00 +9°C° 0 mm 3 m/S 757 mmHg 83%
    01:00 +9°C° 0 mm 2 m/S 757 mmHg 84%
    02:00 +8°C° 0 mm 2 m/S 757 mmHg 85%
    03:00 +8°C° 0 mm 2 m/S 757 mmHg 86%
    04:00 +9°C° 0 mm 2 m/S 757 mmHg 84%
    05:00 +10°C° 0 mm 3 m/S 757 mmHg 81%
    06:00 +10°C° 0 mm 3 m/S 757 mmHg 79%
    07:00 +11°C° 0 mm 3 m/S 757 mmHg 76%
    08:00 +12°C° 0 mm 3 m/S 757 mmHg 73%
    09:00 +13°C° 0 mm 3 m/S 757 mmHg 71%
    10:00 +14°C° 0 mm 3 m/S 757 mmHg 69%
    11:00 +14°C° 0 mm 3 m/S 757 mmHg 66%
    12:00 +16°C° 0 mm 3 m/S 757 mmHg 64%
    13:00 +16°C° 0 mm 3 m/S 756 mmHg 63%
    14:00 +17°C° 0 mm 3 m/S 756 mmHg 62%
    15:00 +17°C° 0 mm 3 m/S 756 mmHg 61%
    16:00 +17°C° 0,1 mm 3 m/S 756 mmHg 62%
    17:00 +17°C° 0,1 mm 3 m/S 755 mmHg 64%
    18:00 +17°C° 0,1 mm 2 m/S 755 mmHg 65%
    19:00 +16°C° 0,1 mm 2 m/S 755 mmHg 70%
    20:00 +15°C° 0,1 mm 2 m/S 755 mmHg 75%
    21:00 +14°C° 0,1 mm 2 m/S 756 mmHg 79%
    22:00 +14°C° 0,1 mm 2 m/S 755 mmHg 83%
    23:00 +13°C° 0,1 mm 2 m/S 755 mmHg 86%

    Morgen, 24 Juni, Sonntag

    Zeit Temperatur Niederschläge Wind Luftdruck Luftfeuchtigkeit
    00:00 +13°C° 0,1 mm 1 m/S 755 mmHg 89%
    01:00 +12°C° 0 mm 1 m/S 755 mmHg 89%
    02:00 +12°C° 0 mm 1 m/S 755 mmHg 90%
    03:00 +12°C° 0 mm 1 m/S 755 mmHg 90%
    04:00 +12°C° 0 mm 1 m/S 755 mmHg 87%
    05:00 +13°C° 0 mm 2 m/S 755 mmHg 84%
    06:00 +13°C° 0 mm 2 m/S 755 mmHg 82%
    07:00 +14°C° 0 mm 2 m/S 755 mmHg 73%
    08:00 +16°C° 0 mm 2 m/S 755 mmHg 64%
    09:00 +17°C° 0 mm 2 m/S 755 mmHg 56%
    10:00 +18°C° 0 mm 2 m/S 755 mmHg 54%
    11:00 +18°C° 0 mm 3 m/S 755 mmHg 53%
    12:00 +19°C° 0 mm 3 m/S 755 mmHg 51%
    13:00 +19°C° 0 mm 3 m/S 755 mmHg 53%
    14:00 +19°C° 0 mm 3 m/S 755 mmHg 56%
    15:00 +19°C° 0 mm 3 m/S 754 mmHg 58%
    16:00 +19°C° 0 mm 3 m/S 754 mmHg 61%
    17:00 +18°C° 0 mm 3 m/S 754 mmHg 65%
    18:00 +18°C° 0 mm 3 m/S 754 mmHg 69%
    19:00 +16°C° 0 mm 3 m/S 755 mmHg 74%
    20:00 +15°C° 0 mm 2 m/S 755 mmHg 79%
    21:00 +14°C° 0 mm 2 m/S 755 mmHg 84%
    22:00 +14°C° 0 mm 2 m/S 755 mmHg 85%
    23:00 +14°C° 0 mm 1 m/S 755 mmHg 87%

    übermorgen, 25 Juni, Montag

    Zeit Temperatur Niederschläge Wind Luftdruck Luftfeuchtigkeit
    00:00 +14°C° 0 mm 1 m/S 755 mmHg 89%
    01:00 +13°C° 0 mm 1 m/S 755 mmHg 90%
    02:00 +13°C° 0 mm 1 m/S 755 mmHg 91%
    03:00 +13°C° 0 mm 1 m/S 755 mmHg 92%
    04:00 +14°C° 0 mm 1 m/S 755 mmHg 89%
    05:00 +14°C° 0 mm 1 m/S 755 mmHg 86%
    06:00 +15°C° 0 mm 2 m/S 756 mmHg 83%
    07:00 +16°C° 0 mm 2 m/S 756 mmHg 75%
    08:00 +18°C° 0 mm 2 m/S 756 mmHg 68%
    09:00 +19°C° 0 mm 2 m/S 756 mmHg 60%
    10:00 +21°C° 0 mm 2 m/S 756 mmHg 56%
    11:00 +23°C° 0 mm 2 m/S 756 mmHg 51%
    12:00 +24°C° 0 mm 3 m/S 756 mmHg 46%
    13:00 +24°C° 0 mm 3 m/S 756 mmHg 44%
    14:00 +25°C° 0 mm 3 m/S 756 mmHg 43%
    15:00 +25°C° 0 mm 3 m/S 756 mmHg 41%
    16:00 +24°C° 0 mm 3 m/S 756 mmHg 45%
    17:00 +24°C° 0 mm 3 m/S 756 mmHg 49%
    18:00 +22°C° 0 mm 3 m/S 756 mmHg 53%
    19:00 +20°C° 0 mm 3 m/S 756 mmHg 59%
    20:00 +18°C° 0 mm 3 m/S 756 mmHg 64%
    21:00 +17°C° 0 mm 2 m/S 757 mmHg 70%
    22:00 +16°C° 0 mm 2 m/S 757 mmHg 73%
    23:00 +15°C° 0 mm 2 m/S 757 mmHg 77%

    26 Juni, Dienstag

    Zeit Temperatur Niederschläge Wind Luftdruck Luftfeuchtigkeit
    00:00 +14°C° 0 mm 2 m/S 757 mmHg 80%
    01:00 +14°C° 0 mm 2 m/S 757 mmHg 82%
    02:00 +13°C° 0 mm 1 m/S 757 mmHg 83%
    03:00 +13°C° 0 mm 1 m/S 757 mmHg 85%
    04:00 +14°C° 0 mm 1 m/S 757 mmHg 81%
    05:00 +15°C° 0 mm 1 m/S 757 mmHg 77%
    06:00 +16°C° 0 mm 1 m/S 757 mmHg 73%
    07:00 +17°C° 0 mm 2 m/S 757 mmHg 65%
    08:00 +19°C° 0 mm 2 m/S 757 mmHg 56%
    09:00 +21°C° 0 mm 2 m/S 757 mmHg 48%
    10:00 +22°C° 0 mm 3 m/S 757 mmHg 44%
    11:00 +24°C° 0 mm 3 m/S 757 mmHg 41%
    12:00 +26°C° 0 mm 3 m/S 757 mmHg 37%
    13:00 +26°C° 0 mm 3 m/S 756 mmHg 38%
    14:00 +26°C° 0 mm 3 m/S 756 mmHg 38%
    15:00 +27°C° 0 mm 4 m/S 756 mmHg 39%
    16:00 +26°C° 0 mm 3 m/S 756 mmHg 43%
    17:00 +25°C° 0 mm 3 m/S 756 mmHg 47%
    18:00 +25°C° 0 mm 3 m/S 756 mmHg 52%
    19:00 +22°C° 0 mm 3 m/S 756 mmHg 58%
    20:00 +20°C° 0 mm 3 m/S 756 mmHg 64%
    21:00 +19°C° 0 mm 2 m/S 756 mmHg 69%
    22:00 +18°C° 0 mm 2 m/S 756 mmHg 74%
    23:00 +17°C° 0 mm 2 m/S 756 mmHg 78%

    27 Juni, Mittwoch

    Zeit Temperatur Niederschläge Wind Luftdruck Luftfeuchtigkeit
    00:00 +17°C° 0 mm 2 m/S 756 mmHg 82%
    01:00 +16°C° 0 mm 2 m/S 756 mmHg 84%
    02:00 +16°C° 0 mm 2 m/S 756 mmHg 85%
    03:00 +16°C° 0 mm 2 m/S 756 mmHg 87%
    04:00 +17°C° 0 mm 2 m/S 756 mmHg 83%
    05:00 +18°C° 0 mm 2 m/S 756 mmHg 79%
    06:00 +19°C° 0 mm 2 m/S 756 mmHg 75%
    07:00 +21°C° 0 mm 2 m/S 756 mmHg 68%
    08:00 +24°C° 0 mm 2 m/S 756 mmHg 60%
    09:00 +25°C° 0 mm 3 m/S 756 mmHg 53%
    10:00 +27°C° 0 mm 3 m/S 756 mmHg 49%
    11:00 +28°C° 0 mm 3 m/S 756 mmHg 45%
    12:00 +29°C° 0 mm 3 m/S 755 mmHg 41%
    13:00 +30°C° 0 mm 3 m/S 755 mmHg 41%
    14:00 +30°C° 0 mm 3 m/S 755 mmHg 41%
    15:00 +30°C° 0 mm 3 m/S 754 mmHg 40%
    16:00 +30°C° 0 mm 3 m/S 754 mmHg 45%
    17:00 +29°C° 0 mm 3 m/S 754 mmHg 49%
    18:00 +28°C° 0 mm 3 m/S 754 mmHg 54%
    19:00 +27°C° 0 mm 3 m/S 755 mmHg 58%
    20:00 +25°C° 0 mm 3 m/S 755 mmHg 63%
    21:00 +24°C° 0 mm 3 m/S 755 mmHg 67%
    22:00 +22°C° 0 mm 3 m/S 755 mmHg 70%
    23:00 +21°C° 0 mm 3 m/S 755 mmHg 72%

    28 Juni, Donnerstag

    Zeit Temperatur Niederschläge Wind Luftdruck Luftfeuchtigkeit
    00:00 +21°C° 0 mm 3 m/S 755 mmHg 74%
    01:00 +20°C° 0 mm 3 m/S 755 mmHg 75%
    02:00 +20°C° 0 mm 2 m/S 755 mmHg 77%
    03:00 +19°C° 0 mm 2 m/S 755 mmHg 78%
    04:00 +20°C° 0 mm 2 m/S 755 mmHg 74%
    05:00 +21°C° 0 mm 2 m/S 755 mmHg 70%
    06:00 +23°C° 0 mm 2 m/S 755 mmHg 66%
    07:00 +24°C° 0 mm 3 m/S 755 mmHg 57%
    08:00 +26°C° 0 mm 3 m/S 755 mmHg 48%
    09:00 +28°C° 0 mm 4 m/S 755 mmHg 39%
    10:00 +29°C° 0 mm 4 m/S 755 mmHg 36%
    11:00 +30°C° 0 mm 4 m/S 755 mmHg 32%
    12:00 +32°C° 0 mm 4 m/S 754 mmHg 29%
    13:00 +32°C° 0 mm 4 m/S 754 mmHg 30%
    14:00 +32°C° 0 mm 4 m/S 754 mmHg 31%
    15:00 +32°C° 0 mm 4 m/S 754 mmHg 32%
    16:00 +30°C° 0 mm 4 m/S 754 mmHg 38%
    17:00 +29°C° 0 mm 4 m/S 754 mmHg 43%
    18:00 +28°C° 0 mm 3 m/S 754 mmHg 48%
    19:00 +27°C° 0 mm 3 m/S 754 mmHg 51%
    20:00 +25°C° 0 mm 3 m/S 754 mmHg 53%
    21:00 +22°C° 0 mm 3 m/S 754 mmHg 55%
    22:00 +22°C° 0 mm 3 m/S 754 mmHg 57%
    23:00 +21°C° 0 mm 3 m/S 754 mmHg 58%
    Mehr zeigen